STARLINK-36138

Last updated on Fri Dec 19 2025 00:02:09 GMT+0000 (Coordinated Universal Time)

1 67030U 25294A 25351.83335648 -.01268019 47925-3 -31885-2 0 9990 2 67030 42.9997 151.3229 0001750 276.2491 123.7728 15.94764944 2123
UTC large
Height (km)
Speed (km/s)
/
Latitude / Longitude
Inclination (degrees)
Orbital Period (minutes)
Azimuth
Elevation
Range (km)
Doppler Factor

Next 0 passes for location: London (51.5072 / 0.1276)

Sorry there are no passes over London.